{"data":{"norad_id":69290,"intl_designator":"2026-118Z","name":"KUIPER-00607","alt_names":[],"object_type":"PAYLOAD","status":"ACTIVE","operator":null,"country":"US","launch_date":"2026-05-29","launch_site_code":"AFETR","launch_vehicle":null,"mission":null,"orbit_class":"UNKNOWN","rcs_meters":null,"size_class":null,"mass_kg":null,"dimensions":null,"purposes":[],"wikipedia_slug":null,"has_3d_model":false,"image_url":null,"decayed_at":null,"tle_current":{"epoch":"2026-09-20T04:03:50.107680Z","epoch_age_seconds":58679,"freshness":"FRESH","line1":"1 69290U 26118Z   26263.16932995  .00001729  00000+0  25579-3 0  9996","line2":"2 69290  51.9022 325.6641 0001359  17.7277 342.3732 14.79936963 18430","mean_motion":14.79936963,"eccentricity":0.0001359,"inclination_deg":51.9022,"raan_deg":325.6641,"arg_perigee_deg":17.7277,"mean_anomaly_deg":342.3732,"bstar":0.00025579,"rev_number":1843,"period_min":97.301441615524,"perigee_km":628.57077798377,"apogee_km":630.47546000412,"semimajor_km":7007.6601189939,"source":"CELESTRAK","updated_at":"2026-09-20T09:00:24.782935Z"}}}